Regional Weather Roundup
Issued by NWS Sterling, VA

Home | Current Version | Previous Version | Text Only | Print | Product List | Glossary Off
Versions: 1 2 3 4 5 6 7 8 9 10 11 12 13 14 15 16 17 18 19 20 21 22 23 24 25 26 27 28 29 30 31 32 33 34 35 36 37 38 39 40 41 42 43 44 45 46 47 48 49 50

000
ASUS41 KLWX 232110
RWRLWX

REGIONAL WEATHER ROUNDUP
NATIONAL WEATHER SERVICE BALTIMORE MD/WASHINGTON DC
500 PM EDT TUE SEP 23 2014

Note: "FAIR" indicates few or no clouds below 12,000 feet
with no significant weather and/or obstructions to visibility.
 TC=TEMPERATURE CELSIUS

 * =Non NWS site. Station does not report precipitation (e.g. rain,
    snow, etc.), thunder, or fog.

DCZ001-MDZ009-015-VAZ040>042-051-053>054-232200-
WASHINGTON METRO

CITY           SKY/WX    TMP DP  RH WIND       PRES   REMARKS
WASHINGTON NAT PTSUNNY   73  40  30 NE6       30.31F
DULLES         PTSUNNY   69  42  37 NE8       30.31F
ANDREWS AFB    MOSUNNY   69  45  42 E8        30.31S
QUANTICO       PTSUNNY   69  43  38 N7        30.32F
COLLEGE PARK*  MOSUNNY   72  41  33 CALM      30.31S
LEESBURG*      PTSUNNY   68  46  45 NW5       30.33S
MANASSAS*      SUNNY     72  43  35 NE8       30.31S
GAITHERSBURG*  MOSUNNY   66  45  45 CALM      30.35S

$$

MDZ006>007-011-014-232200-
BALTIMORE METRO

CITY           SKY/WX    TMP DP  RH WIND       PRES   REMARKS
BWI AIRPORT    PTSUNNY   69  44  40 E6        30.30S
MD SCIENCE CTR   N/A     68  47  46 MISG      30.32R
MARTIN STATE   MOSUNNY   68  52  56 CALM      30.33S
ANNAPOLIS      MOSUNNY   67  46  47 NE7       30.31F
FORT MEADE*    MOSUNNY   68  45  42 E6        30.33S

$$

MDZ012-015-019>023-232200-
MARYLAND EASTERN SHORE

CITY           SKY/WX    TMP DP  RH WIND       PRES   REMARKS
OCEAN CITY     CLOUDY    63  47  55 NE6       30.32S
SALISBURY      CLOUDY    66  47  50 NE7       30.32R
BAY BRIDGE AP*   N/A     68  43  40 N5        30.32S
CAMBRIDGE*     PTSUNNY   70  43  37 E6        30.31S
EASTON*        PTSUNNY   70  48  46 NE6       30.34F

$$

MDZ017>025-232200-
SOUTHERN MARYLAND

CITY           SKY/WX    TMP DP  RH WIND       PRES   REMARKS
PATUXENT RIVER MOSUNNY   66  44  45 NE8       30.32R
ST INIGOES     MOSUNNY   66  44  45 VRB5      30.31F
LEONARDTOWN*   MOSUNNY   64  41  42 NE6       30.34S

$$

MDZ003>005-232200-
NORTH CENTRAL MARYLAND

CITY           SKY/WX    TMP DP  RH WIND       PRES   REMARKS
FREDERICK*     SUNNY     73  46  38 CALM      30.34
HAGERSTOWN APT SUNNY     69  42  37 CALM      30.31F
WESTMINSTER*   MOSUNNY   70  37  30 N5        30.32S

$$

MDZ501>502-232200-
WESTERN MARYLAND

CITY           SKY/WX    TMP DP  RH WIND       PRES   REMARKS
OAKLAND*       SUNNY     63  27  25 CALM      30.35F
CUMBERLAND*    SUNNY     77  37  24 SW5       30.34F

$$

VAZ025>031-232200-
SHENANDOAH VALLEY

CITY           SKY/WX    TMP DP  RH WIND       PRES   REMARKS
WINCHESTER*    PTSUNNY   68  39  34 E5        30.33R
STAUNTON*      PTSUNNY   68  39  34 NE3       30.33F

$$

WVZ021-048>050-054>055-232200-
EASTERN WEST VIRGINIA PANHANDLE

CITY           SKY/WX    TMP DP  RH WIND       PRES   REMARKS
MARTINSBURG    MOSUNNY   69  39  33 NE3       30.33S
PETERSBURG*    MOSUNNY   71  36  27 CALM      30.32S

$$

VAZ036>039-050-232200-
CENTRAL FOOTHILLS

CITY           SKY/WX    TMP DP  RH WIND       PRES   REMARKS
CHARLOTTESVILL MOSUNNY   69  41  36 NE5       30.31F
ORANGE*        MOSUNNY   68  41  37 NW5       30.32F

$$

VAZ055>057-232200-
NORTH AND CENTRAL PIEDMONT

CITY           SKY/WX    TMP DP  RH WIND       PRES   REMARKS
FREDERICKSBRG* MOSUNNY   69  43  38 N6        30.30F
STAFFORD*      MOSUNNY   67  48  50 CALM      30.35F

$$

NCZ024-NYZ072-PAZ021-071-VAZ022-071-232200-
OTHER REGIONAL OBSERVATIONS

CITY           SKY/WX    TMP DP  RH WIND       PRES   REMARKS
NEW YORK CITY  SUNNY     70  42  36 VRB3      30.33S
PHILADELPHIA   PTSUNNY   72  44  36 SE3       30.31F
PITTSBURGH     MOSUNNY   68  42  38 N5        30.33F
ROANOKE        CLOUDY    61  48  62 S8        30.35R
RICHMOND       PTSUNNY   68  44  42 N8        30.30F
RALEIGH        CLOUDY    61  50  67 N7        30.29F

$$

ANZ530>537-232200-
MARINE OBSERVATIONS

STATION/POSITION TIME  TEMP    WIND        PRES
                       AIR SEA DIR/SP/G
                 (UTC) (F)     (DEG/KT/KT) (MB)
THOMAS PT LIGHT  2100   65 72   70/  4/  5 1027.6F
BALT KEY BRIDGE  2100   65     130/  6/  8 1026.4F
COVE POINT       2100   63      20/  5/  8 1026.7R
LEWISETTA        2100   64 70   60/  5/  7 1026.3R
SOLOMONS ISLAND  2100      74                N/A
PINEY POINT      2100           50/  5/  7   N/A

$$



USA.gov is the U.S. government's official web portal to all federal, state and local government web resources and services.